Theta_e
314 314 314 314 314 314 314 314 314 314 314 314 315 315 314 315 314 313 312 311 312 314 314 314 311 309 311 312 312 313 311 308 308 311 316 316 309 308 313 309 314 328 322 322 327 329 332 331 337 338 335 339 339 343 350 355 359 362 366 364 360 365 370 367 366 363 362 364 362 361 362 362 361 360 362 360 357 356 357 355 352 351 350 350 351 351 351 351
315 314 314 314 314 314 314 314 314 314 314 314 314 314 314 314 313 313 313 313 314 315 315 315 312 310 312 313 313 313 310 309 313 318 319 309 313 310 309 310 314 326 324 325 328 328 331 332 332 331 333 340 341 344 352 357 358 362 365 362 362 370 372 368 365 361 362 363 361 362 363 361 361 360 361 361 359 357 357 356 352 352 351 351 351 351 351 350
314 314 314 314 314 313 314 314 313 313 313 313 313 313 313 313 313 313 313 314 315 315 315 314 312 312 315 316 314 312 310 313 324 332 320 310 315 310 310 311 315 326 326 325 326 324 326 327 327 328 335 343 344 347 354 357 359 362 361 365 372 370 366 365 366 364 361 361 361 363 363 362 361 361 361 359 359 358 358 356 354 355 353 351 351 351 351 349
314 314 314 314 313 313 313 314 313 313 314 314 313 313 313 312 312 313 314 315 315 315 314 312 313 315 317 316 313 310 312 321 331 329 323 320 316 309 311 313 322 331 328 324 323 323 323 324 327 330 339 347 346 349 357 358 360 363 361 368 374 367 367 367 366 364 360 360 362 362 363 362 361 363 361 357 359 360 357 355 354 354 353 352 351 351 350 349
314 313 313 313 313 313 313 313 314 314 314 314 314 314 313 313 313 314 315 315 315 314 312 313 314 316 317 315 312 311 316 326 323 325 328 326 318 310 311 317 327 332 327 325 324 325 326 326 331 336 343 350 350 353 359 357 357 362 362 365 366 363 369 368 363 363 360 361 363 363 363 361 361 364 360 356 360 360 355 353 352 351 351 352 351 351 351 350
313 313 313 313 313 313 313 313 314 314 315 315 314 314 314 314 314 315 315 314 314 313 312 314 314 315 315 312 312 314 320 322 317 322 326 325 317 310 314 322 328 328 323 325 326 328 330 331 337 343 345 348 350 355 359 356 355 363 364 360 359 360 365 364 361 362 361 362 364 363 360 360 362 363 363 361 360 358 354 351 350 350 350 351 351 351 350 350
313 313 313 313 313 313 313 314 314 314 315 315 315 315 314 314 315 314 314 313 313 313 313 314 314 315 313 311 315 317 321 322 315 317 322 321 314 312 317 323 328 328 322 322 326 329 332 334 339 342 343 344 346 349 355 358 356 360 363 359 357 360 362 361 361 362 362 364 364 360 359 362 365 362 364 365 360 356 352 349 350 350 350 351 351 351 351 350
313 313 313 313 313 313 313 313 313 314 314 314 314 314 313 312 313 312 312 312 313 313 313 314 315 315 312 313 318 318 319 319 313 316 321 317 313 315 318 321 325 326 321 320 325 330 332 335 337 339 342 343 342 341 351 362 359 357 360 358 359 361 360 359 359 361 363 364 362 360 362 362 362 362 365 366 358 352 351 349 350 350 350 351 350 351 351 350
313 313 313 313 313 312 312 312 313 314 314 314 314 313 312 311 311 312 312 313 312 313 313 314 316 315 314 317 318 313 317 319 319 321 321 319 315 315 319 320 322 321 319 319 323 328 332 336 337 339 342 343 339 336 349 361 360 359 359 360 361 361 359 358 360 361 362 363 362 362 363 360 359 362 364 365 358 349 350 350 350 351 350 351 351 350 351 350
313 313 313 313 313 312 312 312 313 314 314 314 314 313 312 311 311 312 312 312 312 313 314 313 315 314 314 318 315 308 318 321 324 326 322 321 315 316 320 321 320 319 318 317 320 327 332 334 334 337 338 340 336 334 350 358 355 357 358 360 361 359 358 357 360 362 362 363 362 362 363 359 360 364 364 361 354 349 351 352 351 352 351 351 351 351 350 350
313 313 313 313 313 312 312 313 313 313 314 314 314 314 312 311 312 311 312 311 311 313 314 314 314 313 314 318 313 308 318 318 320 325 325 321 316 318 320 321 320 317 317 316 317 323 330 331 331 336 336 339 337 333 350 355 351 356 357 360 359 356 358 357 360 361 362 362 360 361 361 359 359 366 367 357 351 349 351 353 352 352 352 352 351 351 350 350
313 313 313 313 313 313 313 313 313 314 314 314 315 314 311 311 311 311 312 311 312 313 315 315 314 314 316 320 317 313 314 314 314 320 325 322 319 321 321 322 321 318 318 316 316 319 325 328 330 338 338 339 338 331 336 338 344 356 358 362 360 357 358 357 359 359 361 362 360 361 362 360 362 365 364 355 349 350 351 353 353 353 353 352 351 350 350 349
313 313 313 313 313 313 313 313 314 314 314 314 315 314 312 312 311 312 311 311 313 313 316 316 315 315 316 318 317 313 311 315 313 316 323 324 322 323 324 324 322 320 319 316 317 317 320 323 326 335 335 335 337 331 326 326 343 359 357 360 361 360 360 357 356 358 361 361 359 363 361 361 365 362 360 356 350 350 352 353 353 352 352 351 350 350 349 349
313 313 313 313 313 313 313 314 314 314 315 315 315 314 312 312 311 312 311 312 314 315 317 318 317 317 316 315 313 312 315 319 318 316 319 322 323 323 324 324 323 320 319 318 317 317 317 318 321 328 329 331 333 329 326 330 348 362 358 359 362 359 359 358 355 358 362 359 359 364 360 362 367 361 359 361 353 350 353 353 352 352 351 350 350 349 349 348
313 313 313 313 313 314 314 314 314 315 315 315 315 313 312 312 312 311 312 314 315 316 317 317 317 319 320 320 315 313 319 321 321 320 318 320 321 322 323 323 323 320 319 319 318 318 317 317 322 327 326 328 329 327 330 338 351 361 358 356 359 358 359 361 358 358 362 358 357 363 360 364 368 359 359 362 355 351 353 352 351 351 350 350 349 348 348 347
313 313 313 313 313 314 314 314 315 315 315 315 315 313 312 312 312 312 314 316 316 318 317 316 317 318 320 322 317 315 321 322 323 321 320 319 316 319 321 321 322 321 320 320 318 319 319 321 325 326 325 324 326 332 336 340 348 356 359 355 355 358 360 361 360 358 360 359 359 362 363 367 367 359 359 361 354 351 353 352 350 350 349 349 348 348 348 347
313 313 313 313 313 314 314 315 315 315 315 315 314 312 312 312 312 313 313 314 315 318 318 316 317 316 316 317 317 320 322 321 323 322 321 321 316 317 319 318 318 317 318 318 317 318 321 323 325 326 325 323 327 335 328 326 341 351 355 356 354 358 359 359 361 359 358 359 360 361 363 366 363 359 360 360 357 353 352 352 350 349 349 348 348 347 347 348
313 313 313 313 314 314 314 315 315 315 315 315 313 312 313 313 313 313 314 314 315 317 318 317 318 318 313 312 316 320 319 317 321 321 320 320 317 316 318 317 315 315 317 319 318 320 322 322 325 327 326 324 325 333 324 321 343 351 349 353 354 359 359 358 362 359 358 360 360 361 364 365 361 360 362 360 359 356 351 351 351 349 349 348 347 347 347 347
313 313 313 313 313 314 314 315 315 315 316 316 314 313 315 315 315 316 316 317 319 320 319 320 322 318 312 314 316 318 318 318 321 319 320 320 317 317 319 317 317 319 322 326 323 321 323 322 324 324 324 326 326 331 330 326 342 350 349 354 354 357 358 360 363 358 359 362 361 362 363 364 361 360 363 359 359 359 352 351 352 350 350 349 347 347 347 348
313 313 314 313 314 314 314 315 315 316 317 316 315 317 319 320 322 322 320 321 323 320 318 321 323 318 317 318 317 318 320 320 320 320 320 320 318 317 319 319 322 325 327 330 326 322 323 323 325 326 326 328 327 331 332 326 330 336 348 356 354 355 356 360 365 359 358 361 360 362 363 363 362 360 361 358 358 359 354 351 353 352 350 348 348 347 346 347
313 313 313 313 313 314 314 315 315 316 317 316 316 319 321 322 323 322 323 325 323 318 319 320 319 318 318 318 317 319 322 322 321 321 320 320 320 319 321 323 326 327 325 327 326 322 323 324 326 329 327 326 326 329 328 324 324 326 342 355 351 352 356 359 364 359 356 360 360 361 361 361 362 360 359 358 357 360 357 352 351 351 351 350 348 348 347 344
313 313 313 313 313 314 315 315 315 317 317 316 317 318 319 320 319 318 319 322 321 318 319 318 317 318 318 317 319 318 321 325 324 322 321 320 321 322 324 324 328 329 323 323 326 325 325 325 326 326 323 322 324 325 323 322 323 323 334 351 350 351 358 359 361 359 354 360 362 361 362 362 361 358 357 357 358 361 362 359 357 353 350 351 350 348 347 343
313 314 313 313 313 314 315 315 316 317 316 316 317 317 318 318 318 317 316 318 320 319 321 322 321 323 323 320 319 319 324 327 325 323 322 321 322 324 325 325 327 326 321 323 327 326 324 324 324 324 321 321 322 322 322 321 321 322 331 346 350 351 355 357 359 358 354 358 361 360 362 362 361 359 357 356 358 360 361 361 364 359 352 351 350 349 347 343
314 313 313 313 313 314 315 315 317 317 316 317 319 319 318 319 318 317 317 320 320 320 322 322 323 327 327 322 319 322 327 326 324 324 321 322 324 322 324 326 324 323 322 325 326 325 324 322 321 322 322 322 322 322 321 320 319 321 326 335 344 349 354 358 357 356 355 357 360 359 358 358 359 362 361 358 358 360 359 360 364 363 357 353 351 349 347 343
314 313 313 313 313 314 314 316 318 317 317 319 319 319 318 319 318 316 320 322 320 319 319 316 319 323 322 319 320 322 324 323 323 324 321 322 324 322 323 323 323 324 324 323 322 323 323 321 319 321 323 321 322 323 322 322 319 319 322 324 337 355 360 359 357 357 357 356 358 357 353 355 357 360 363 361 359 359 359 360 361 362 360 356 353 348 345 343
314 314 313 313 313 314 315 318 318 315 318 320 319 319 319 320 319 315 322 325 318 317 320 316 317 319 315 316 319 320 322 322 321 321 321 322 323 323 323 323 322 324 324 322 322 323 321 320 319 320 323 322 322 323 322 323 317 316 323 321 336 360 361 357 357 355 355 354 355 355 352 355 356 357 362 361 361 360 359 360 359 360 360 356 354 349 344 343
314 315 314 313 313 314 316 318 317 316 320 320 318 319 319 320 317 314 324 330 321 316 319 316 315 316 314 314 317 321 324 323 320 320 321 323 322 322 324 325 323 322 323 322 320 321 322 320 320 320 321 322 321 322 322 322 318 319 323 321 339 361 358 357 356 353 355 355 354 355 354 354 353 354 360 360 361 362 360 359 358 358 357 355 355 351 343 341
314 315 315 314 313 314 316 317 316 317 318 319 318 319 320 320 317 318 327 327 319 315 317 315 314 314 313 313 317 321 321 319 320 320 319 322 321 321 324 325 326 325 323 321 321 323 322 320 322 321 321 321 321 325 323 321 320 323 325 327 343 360 358 356 354 354 358 355 354 355 351 352 353 354 360 362 361 362 360 359 357 357 355 354 356 354 347 341
315 315 315 314 313 314 316 315 316 317 317 318 318 319 321 319 318 326 330 321 314 314 316 314 314 315 314 315 316 318 318 317 318 318 319 321 320 319 323 324 326 325 321 320 324 324 320 322 324 321 320 322 323 325 323 321 321 324 333 340 344 351 353 354 356 356 355 352 353 353 349 351 355 355 359 362 360 360 360 358 356 356 354 353 354 355 353 345
315 315 315 314 314 315 315 315 316 317 318 318 318 319 320 322 329 334 326 316 313 315 315 314 314 314 315 316 315 317 318 318 318 319 320 321 320 318 318 320 323 324 322 321 322 321 319 322 326 323 322 323 323 322 320 321 322 326 340 345 342 347 351 354 360 357 350 349 351 351 350 348 348 352 356 359 360 358 358 358 356 356 353 352 353 353 355 350
315 315 315 314 314 314 315 317 317 317 317 317 319 320 321 328 337 334 320 313 314 315 313 315 315 314 315 315 315 316 317 317 318 321 322 319 320 321 317 318 321 323 325 323 319 319 319 318 323 327 327 322 319 320 319 319 320 324 339 343 341 343 346 352 356 353 349 350 348 348 352 345 342 350 355 358 359 358 358 357 356 356 353 352 352 352 355 354
315 315 314 314 314 314 316 318 317 316 317 318 320 324 327 328 325 323 319 315 313 313 314 315 315 315 316 316 316 317 316 316 316 321 324 319 320 322 320 322 324 320 321 322 318 318 321 321 320 324 327 323 318 320 319 318 318 322 333 340 342 340 342 350 350 347 349 346 343 347 351 347 349 354 356 359 359 358 359 356 353 355 354 351 352 352 353 356
315 315 314 314 315 315 316 317 316 316 318 320 322 330 333 324 316 319 323 319 312 313 315 315 314 315 316 316 316 317 315 315 316 319 320 319 321 320 318 321 322 317 319 320 316 316 321 322 320 320 323 323 321 319 319 320 319 320 324 332 341 342 344 350 346 343 345 341 342 351 352 350 351 351 353 357 354 353 357 357 353 353 353 351 352 355 353 356
315 315 315 315 316 316 317 317 318 319 319 319 326 332 326 318 318 322 324 319 314 314 314 313 314 315 315 316 316 315 314 314 315 318 319 319 320 319 318 318 316 317 321 317 315 317 317 318 323 323 321 322 323 320 324 328 321 321 326 331 338 340 342 346 344 342 343 342 344 348 349 350 349 346 349 352 350 351 354 356 357 354 355 356 356 360 358 357
315 315 316 317 317 318 318 318 320 322 319 322 332 332 321 316 320 320 318 318 316 316 315 314 317 317 316 318 318 314 314 314 315 318 320 319 317 317 318 316 315 318 318 315 318 320 315 317 326 325 320 323 324 322 328 329 320 322 328 328 331 337 341 340 337 337 340 347 351 347 347 352 352 349 351 352 353 356 357 357 359 357 358 359 357 361 361 359
316 316 317 317 318 320 319 319 322 321 323 330 330 322 319 319 319 317 318 319 314 314 317 315 316 317 316 319 320 316 313 313 316 319 317 316 317 316 316 317 316 317 316 317 322 321 316 319 326 323 321 324 326 327 328 325 323 325 324 323 328 334 340 336 332 335 339 344 348 348 352 355 352 350 353 357 357 357 358 359 359 358 358 357 356 359 362 359
317 317 319 319 321 322 321 321 322 322 330 339 332 324 324 321 316 317 322 319 312 316 321 317 314 314 313 316 317 317 317 314 316 318 314 314 317 316 316 319 317 315 316 316 317 318 316 318 325 323 320 321 323 327 328 326 328 328 322 325 329 327 332 336 337 342 344 343 345 347 353 355 350 348 352 357 359 358 358 358 358 358 357 358 357 357 359 358
317 319 322 321 321 322 322 322 321 326 336 340 337 334 328 320 316 316 317 315 313 319 323 317 314 313 313 315 316 317 318 314 315 319 316 316 318 315 316 319 317 316 317 315 317 320 316 317 326 327 321 322 325 325 324 324 325 327 327 327 328 325 325 327 334 342 342 344 351 350 349 352 352 352 353 355 358 359 357 356 358 358 357 358 358 357 357 355
319 323 325 321 320 321 322 321 321 332 339 332 331 333 323 317 321 318 315 315 315 320 321 316 315 316 316 317 316 316 317 315 316 319 318 316 316 315 316 318 318 318 318 317 320 322 319 317 323 327 320 318 325 327 325 323 320 323 326 322 327 335 331 325 330 339 340 345 352 350 347 351 355 357 358 357 355 356 357 357 357 356 356 356 355 355 354 353
321 328 328 320 320 322 321 322 327 337 335 325 327 330 320 317 320 318 316 316 315 317 318 317 319 318 317 318 316 316 319 319 318 319 318 317 316 316 316 316 318 318 319 321 321 321 322 318 317 327 325 318 321 323 323 326 321 320 322 319 322 328 327 324 326 333 344 350 350 348 348 352 354 353 356 357 353 353 354 355 354 352 352 353 352 352 351 351
324 331 329 321 320 322 322 323 326 329 328 324 323 323 320 321 319 316 318 317 316 317 316 318 321 318 318 320 317 317 322 323 320 319 318 316 316 317 316 315 317 317 318 322 321 319 322 320 317 324 323 318 323 324 323 324 323 324 325 321 322 323 322 323 322 327 343 349 346 347 349 351 350 349 352 353 352 352 351 350 351 351 351 350 350 349 349 349
331 331 326 321 321 321 322 327 329 325 324 325 322 317 321 325 319 315 317 317 316 317 317 318 319 318 319 318 317 320 324 322 319 319 318 316 316 316 315 316 317 317 319 321 319 322 330 330 325 325 325 322 324 324 321 319 321 325 324 321 324 325 325 324 322 329 341 344 344 347 347 347 346 346 349 350 349 349 349 349 350 350 349 348 347 347 346 347
336 331 324 320 320 321 323 331 336 333 329 325 320 316 318 319 317 316 317 318 317 317 319 318 317 319 318 316 319 323 321 318 317 319 319 318 317 315 315 317 316 317 320 319 316 323 332 331 327 332 342 343 335 329 324 321 321 324 324 322 321 323 327 329 332 341 344 344 347 347 345 347 348 347 348 347 347 347 346 347 348 348 346 346 345 346 346 346
334 332 331 325 317 319 325 326 327 332 335 329 319 316 317 316 317 318 316 319 319 316 319 319 317 318 318 318 321 322 319 317 316 318 318 316 318 318 317 318 319 320 320 318 320 321 323 326 329 331 331 331 336 336 328 324 325 325 325 324 326 335 339 334 340 349 346 343 345 343 344 349 349 347 347 346 346 346 344 344 344 345 344 343 343 345 344 344
329 328 334 331 319 318 325 322 322 326 329 327 319 316 318 316 316 317 316 318 318 316 320 321 318 318 320 323 324 321 321 320 318 321 321 321 324 322 319 319 323 329 329 329 333 331 325 328 333 332 324 321 329 330 323 323 325 321 323 322 325 341 344 335 340 345 342 340 342 342 346 351 350 348 347 346 345 344 343 342 341 341 341 341 341 342 342 343
330 328 336 341 330 324 324 319 321 325 325 330 326 316 316 317 316 316 316 318 316 316 320 320 320 323 325 327 328 325 325 323 322 325 325 325 327 323 321 320 321 332 341 336 337 342 339 332 331 335 331 328 337 337 327 327 323 316 320 322 320 334 344 342 339 338 338 342 345 348 350 351 353 352 349 347 345 344 343 341 340 340 339 339 339 340 341 342
334 330 334 341 333 331 331 322 322 323 321 327 325 315 315 316 315 317 317 317 316 317 321 319 319 325 326 327 329 326 327 328 324 324 323 325 328 325 323 322 319 331 341 331 331 345 346 331 326 330 326 322 334 336 326 325 322 314 317 321 321 331 341 341 335 335 340 341 342 349 351 350 353 352 349 347 344 343 342 340 340 339 338 338 339 339 340 341
330 327 327 327 325 329 331 323 324 325 324 330 324 315 317 316 315 316 316 317 317 317 324 323 318 319 320 325 330 326 329 332 326 324 324 322 326 326 324 323 321 327 332 325 329 342 342 329 324 326 323 320 323 322 319 322 320 315 317 324 331 335 336 338 340 341 342 339 340 349 351 350 352 349 346 345 342 341 340 338 338 337 337 337 338 339 340 341
329 333 329 324 325 332 329 324 326 323 325 339 333 319 319 320 318 316 313 317 319 318 324 324 318 316 316 325 335 329 326 329 323 322 324 321 323 324 323 325 323 321 325 324 326 333 333 329 328 328 327 325 322 318 319 322 320 317 319 323 332 338 341 347 348 347 348 347 347 349 349 349 350 346 344 342 340 339 338 337 337 336 336 337 338 340 340 340
329 331 331 332 335 336 333 331 332 324 323 334 330 319 321 321 319 318 315 317 320 319 322 321 317 316 314 320 331 326 321 326 321 318 321 322 323 322 320 322 319 319 325 324 322 326 323 321 332 337 328 323 326 322 320 322 320 319 320 320 324 334 343 351 350 351 356 354 347 346 350 350 347 343 341 340 339 338 337 337 337 336 336 337 337 338 337 336
323 321 324 334 337 334 335 333 331 329 327 328 325 323 324 320 317 319 316 316 319 320 323 322 319 320 318 318 321 318 318 324 323 318 320 320 320 319 318 318 317 319 324 324 322 328 326 323 335 341 326 319 326 325 322 324 323 321 322 321 322 327 335 343 346 350 355 352 346 347 351 349 344 340 340 339 338 338 337 336 336 335 335 335 335 334 334 333
325 323 322 329 331 330 336 334 326 325 324 322 323 325 324 320 319 322 319 315 317 318 320 322 321 320 320 318 317 315 314 320 322 319 317 318 318 319 319 318 318 317 321 325 323 327 334 333 333 334 328 323 326 327 324 325 324 322 321 320 321 327 334 341 345 347 348 346 347 349 348 345 342 340 340 339 338 338 337 335 334 334 333 333 332 332 332 332
Wind_Speed
12 12 12 12 11 11 11 11 11 11 11 11 11 11 11 10 10 10 9 9 9 9 9 8 8 9 10 10 11 11 13 13 12 7 9 14 13 12 9 10 15 15 17 20 20 17 10 8 8 8 8 4 1 1 2 2 1 1 0 1 1 1 1 2 4 3 4 6 6 5 3 6 6 2 2 4 6 7 6 6 7 9 11 14 18 22 23 23
12 12 12 12 11 11 11 11 11 11 11 11 11 11 11 10 10 10 10 10 9 9 8 8 8 8 9 10 11 11 13 15 12 11 19 18 7 10 12 11 15 20 22 22 22 20 12 7 8 7 5 2 1 2 2 1 1 1 0 2 1 1 0 1 4 4 4 7 8 6 3 4 6 4 3 4 6 6 8 7 9 13 13 17 20 21 22 23
13 12 12 12 12 12 11 11 11 11 11 11 11 11 11 10 10 10 10 10 8 8 8 8 8 8 9 9 10 11 12 11 7 9 15 14 11 11 13 13 16 22 25 24 23 21 16 13 13 9 4 2 1 2 3 1 1 2 0 1 2 2 1 1 4 4 4 9 11 6 4 4 4 2 1 6 8 7 8 7 9 12 14 16 16 18 22 21
14 13 13 12 12 12 12 12 11 12 11 11 11 11 10 10 10 10 10 9 9 8 7 8 8 8 8 8 9 10 9 5 3 4 3 3 11 13 15 17 19 23 23 22 20 16 15 15 12 6 3 2 1 2 2 3 2 1 1 2 2 1 0 1 4 5 6 9 9 7 6 5 3 2 2 9 9 4 6 8 11 14 16 17 15 16 19 18
14 14 14 13 13 12 12 11 11 11 11 11 11 11 11 10 10 10 9 9 8 7 8 9 8 7 7 7 6 8 7 1 3 2 3 2 10 17 19 20 22 23 20 20 18 12 14 14 8 3 3 2 2 2 2 5 3 1 2 2 1 1 0 1 3 8 9 7 8 7 7 5 3 3 4 8 6 4 5 8 12 15 15 17 16 16 17 16
15 15 15 14 14 13 13 12 12 12 12 12 12 12 11 10 10 9 8 8 8 7 8 8 7 7 5 4 4 5 3 1 5 3 3 2 12 21 22 22 23 22 18 20 18 11 11 10 6 3 3 1 3 4 2 5 4 1 1 2 2 3 2 2 5 9 9 8 7 6 5 4 4 4 3 4 2 4 6 8 12 14 16 18 18 15 14 13
16 16 16 15 15 14 13 12 12 12 12 12 12 13 11 11 10 8 8 7 7 7 8 7 7 5 2 3 2 3 3 5 8 2 3 2 17 24 23 23 24 22 17 18 15 8 8 8 6 4 3 1 3 4 1 4 6 2 1 2 2 4 5 4 6 8 9 8 5 5 6 4 5 4 2 2 2 6 10 10 12 15 18 19 15 13 12 12
18 17 17 16 16 15 14 13 12 12 13 13 13 13 11 10 9 8 7 7 7 7 7 6 6 4 1 2 0 3 1 6 6 1 2 4 21 25 23 21 21 23 18 16 14 8 6 8 7 4 2 3 2 3 3 4 4 4 2 2 3 5 6 5 6 8 8 7 6 8 7 5 3 3 2 3 3 9 12 12 13 15 16 15 13 12 12 12
19 18 17 17 16 16 14 13 12 12 13 13 13 13 12 10 8 7 6 7 7 6 6 5 5 1 2 1 2 2 3 4 6 2 1 7 22 25 22 19 20 23 19 14 14 11 7 6 6 5 3 4 2 2 4 4 3 5 2 3 4 6 7 6 6 7 7 4 6 9 7 5 3 1 3 3 5 12 14 13 13 14 14 12 11 11 11 10
20 18 18 17 16 15 14 12 12 13 13 13 13 13 12 9 7 6 6 7 6 6 5 3 2 1 1 1 4 1 4 4 8 2 3 9 21 25 21 18 20 23 19 13 13 11 6 5 6 4 3 1 2 3 4 5 3 6 8 7 7 8 7 6 5 5 6 3 4 8 7 4 3 1 3 3 7 14 14 13 12 13 13 12 10 9 12 12
20 19 18 17 16 15 13 12 12 12 13 13 13 12 11 8 6 6 6 7 6 5 4 2 1 3 2 0 4 3 3 7 10 5 4 11 20 24 22 20 21 23 19 12 12 12 5 5 6 4 2 1 2 3 3 3 3 11 13 10 9 11 8 6 6 4 4 3 2 8 9 4 3 1 2 4 10 14 15 14 12 12 11 10 10 9 10 11
21 20 19 18 16 15 13 13 12 12 13 13 12 11 9 7 6 6 5 5 5 3 2 0 4 6 2 1 4 8 5 9 12 7 4 13 19 22 21 21 22 23 21 12 11 15 7 5 5 3 1 1 3 2 2 2 5 11 12 10 7 9 7 3 2 1 1 2 4 7 7 1 1 0 2 6 10 13 15 14 11 10 9 9 9 8 7 9
21 20 19 18 16 15 13 13 13 13 13 13 12 11 8 6 5 5 4 3 1 1 1 3 5 5 1 2 7 8 7 9 9 5 4 12 16 16 15 17 19 19 19 13 11 18 13 2 3 2 1 2 2 3 2 1 5 8 7 8 6 5 4 2 2 2 2 3 5 3 2 3 2 1 2 6 11 13 14 12 11 9 8 8 8 7 7 9
22 21 19 18 16 14 13 13 14 14 13 13 11 9 7 5 3 2 1 1 2 3 3 4 5 4 2 5 8 6 6 5 5 4 6 11 11 10 11 13 15 16 14 8 5 11 16 6 3 1 1 1 3 4 5 3 5 7 6 4 2 2 4 3 2 4 4 2 2 2 1 4 3 4 3 4 10 14 13 12 11 9 8 8 7 7 7 8
22 21 19 17 15 14 13 13 13 13 13 11 9 7 5 2 0 1 2 3 3 5 6 6 5 3 2 7 8 4 4 4 5 6 7 10 10 8 10 13 14 14 12 7 2 3 11 7 1 1 3 2 1 2 3 3 2 5 5 1 1 0 4 4 5 6 4 3 3 3 1 2 2 6 5 3 9 13 12 12 11 9 9 8 7 8 7 7
22 21 19 17 15 14 13 13 13 13 12 9 6 4 1 1 2 3 4 4 5 8 8 5 3 2 1 5 4 2 3 3 4 5 6 9 7 7 12 13 11 11 9 7 4 1 5 6 1 2 2 1 3 3 2 3 1 1 4 3 2 3 5 3 3 5 3 5 4 3 0 2 1 6 5 4 8 11 11 11 12 10 9 9 7 7 7 7
23 21 19 17 16 14 14 14 14 13 12 7 3 2 2 3 4 5 6 7 9 10 9 3 1 1 2 6 4 2 3 3 4 4 8 10 5 9 14 10 6 8 6 4 4 1 2 3 1 1 1 1 2 4 4 1 2 1 3 3 2 4 5 4 2 4 3 5 4 2 1 2 3 7 5 4 5 9 11 10 11 10 9 9 7 7 8 7
23 21 19 17 16 15 15 14 14 13 10 6 2 3 5 6 6 6 8 10 10 7 3 1 1 1 2 5 4 4 6 5 5 3 8 11 8 11 11 5 6 10 6 2 2 1 1 0 1 1 1 2 2 4 4 4 4 4 3 4 2 3 5 4 3 5 8 6 2 2 1 2 6 8 6 3 3 6 11 10 9 9 9 9 8 8 8 8
23 21 19 18 15 15 15 14 14 12 8 6 6 10 9 9 7 5 7 8 5 1 1 1 1 1 1 4 5 8 11 9 6 3 10 12 11 10 5 5 8 8 5 3 1 2 2 1 2 2 2 2 4 5 5 4 5 7 5 5 6 5 3 3 2 5 10 7 3 2 1 3 7 8 6 4 2 1 8 10 7 8 8 8 8 7 8 8
23 21 19 18 15 15 15 14 15 10 8 5 9 11 7 4 3 2 1 2 4 4 3 3 5 1 3 5 5 9 10 6 3 4 11 12 11 8 2 3 5 5 5 5 2 2 4 3 2 4 5 5 5 6 6 4 4 5 5 4 6 4 2 2 3 5 9 6 3 3 3 4 8 8 5 3 2 1 7 11 8 7 8 9 9 8 9 9
23 21 19 17 15 15 14 15 14 8 7 4 8 6 2 1 2 3 3 3 6 8 7 5 5 5 7 7 5 5 4 3 2 1 7 12 11 8 1 2 5 3 2 4 2 1 3 4 5 6 6 5 5 5 3 4 4 4 4 4 3 3 3 3 5 8 8 4 3 5 5 4 6 7 6 4 3 2 5 10 10 9 9 9 10 10 9 8
23 20 19 17 15 14 14 15 13 6 8 6 4 3 1 1 3 3 1 3 6 6 7 5 2 6 9 9 9 3 3 2 3 3 5 9 6 4 1 4 5 2 0 3 2 3 2 3 6 6 4 4 4 2 2 4 4 3 3 4 4 4 4 5 6 7 3 1 3 5 5 5 5 6 5 5 4 1 0 4 7 9 10 9 10 9 8 8
23 20 18 16 14 13 14 15 10 6 10 7 1 2 2 7 6 5 1 2 5 3 3 4 3 5 5 6 7 5 3 2 2 3 4 8 2 3 4 5 4 3 2 4 4 2 1 3 4 5 6 6 3 1 3 3 3 3 3 4 3 5 4 4 4 2 3 3 5 7 4 2 4 5 3 4 3 1 1 2 2 5 9 10 10 9 9 9
23 20 17 15 13 12 14 13 6 7 13 8 1 4 10 14 6 4 2 1 3 5 3 5 4 4 3 2 7 9 3 3 3 2 6 8 3 2 4 4 4 3 1 4 6 5 5 4 3 5 6 6 4 2 3 3 1 1 3 4 4 5 3 5 7 3 5 5 4 8 5 1 3 6 6 4 2 2 3 3 3 3 5 8 8 8 9 9
23 19 16 14 11 11 14 8 3 9 13 4 3 10 15 16 6 4 2 2 2 5 3 2 1 3 3 2 7 6 2 2 4 4 6 8 5 3 2 2 3 2 3 4 5 3 6 5 4 5 4 5 5 3 3 5 2 3 3 6 6 8 8 10 11 6 4 2 2 4 3 1 3 6 9 6 4 7 5 4 6 4 4 6 7 8 8 8
22 18 15 13 10 10 10 2 4 12 9 1 5 12 15 13 4 5 3 3 2 4 3 0 0 1 2 1 4 3 3 1 5 3 4 8 8 4 2 0 1 2 4 3 3 2 3 2 3 5 4 5 4 3 4 5 5 2 4 6 7 11 13 14 13 6 3 2 4 4 2 2 2 4 9 7 8 11 8 6 7 5 4 6 7 7 7 8
21 17 14 12 10 10 6 1 6 9 2 2 9 12 13 10 2 4 4 4 2 3 2 1 0 1 2 0 1 4 3 4 2 2 3 7 5 3 3 2 1 2 3 3 1 2 2 1 3 4 4 5 4 3 5 6 7 2 3 9 10 12 14 16 13 6 3 4 4 4 1 2 1 4 8 8 9 12 10 9 8 6 6 6 7 7 8 9
20 16 13 11 10 9 5 4 7 4 2 5 9 11 12 5 3 3 5 3 2 2 1 2 2 2 3 2 3 4 2 3 1 1 2 5 3 4 3 4 5 4 2 5 3 5 2 3 4 5 4 3 4 5 7 8 5 5 4 9 11 12 13 14 9 4 3 5 3 5 2 2 2 3 6 8 9 12 14 14 11 9 8 7 7 7 7 8
18 15 12 11 9 7 5 6 6 3 3 7 9 12 9 2 3 3 5 2 2 2 1 1 2 3 4 3 3 3 1 1 2 3 2 4 2 3 3 5 6 5 1 4 4 6 3 5 7 6 4 5 6 6 9 10 5 5 5 8 6 7 6 6 5 4 4 3 4 9 6 2 2 2 6 8 10 14 15 13 12 10 9 8 6 6 6 6
17 14 12 10 8 6 6 8 5 3 6 10 11 11 5 2 4 5 4 1 1 2 1 1 1 1 3 3 3 3 1 1 1 1 2 2 2 5 2 3 5 4 1 2 2 6 4 3 4 4 5 7 7 6 8 11 8 3 7 8 8 6 5 4 3 3 4 1 4 10 9 3 1 3 7 8 7 11 12 10 10 10 8 8 7 5 6 6
16 14 11 9 8 6 4 6 4 5 10 11 10 7 3 2 3 5 2 1 0 2 2 1 1 1 4 4 1 1 1 2 2 3 2 1 3 4 1 1 2 2 3 4 3 4 5 2 2 4 6 6 4 3 3 6 7 4 4 5 7 4 4 4 4 3 3 4 4 7 8 3 2 4 7 7 3 4 10 11 12 13 11 10 8 6 6 5
14 12 9 8 8 7 6 6 8 10 12 8 5 4 4 2 4 3 1 2 1 2 1 2 2 1 3 3 1 2 1 0 1 3 3 3 3 2 1 2 3 1 3 3 2 4 4 3 3 3 4 5 6 2 2 1 3 4 4 5 6 2 1 2 1 1 3 4 3 4 6 2 4 4 4 7 5 2 6 9 12 13 12 11 9 7 6 5
12 10 8 7 8 9 10 11 11 10 9 4 2 4 5 4 3 1 3 2 1 2 1 1 1 2 4 3 1 2 1 1 1 2 2 3 3 1 2 1 4 3 1 3 1 3 3 5 3 0 3 4 8 5 1 1 4 6 5 5 5 4 4 3 1 0 2 4 1 5 6 1 5 2 2 6 7 5 4 7 10 12 12 10 8 6 5 5
9 7 7 8 9 11 10 10 8 7 6 3 4 5 7 5 1 3 3 3 3 2 2 1 1 3 3 1 2 1 2 0 0 3 3 3 4 2 4 3 2 3 2 2 1 1 1 3 3 3 2 3 7 7 6 6 5 6 5 5 5 5 5 4 3 3 3 2 2 4 3 2 3 2 4 6 6 5 5 5 7 9 9 8 6 6 5 5
7 5 7 8 9 10 9 7 4 4 4 4 5 6 6 2 3 2 2 4 2 2 4 3 4 5 4 3 3 1 2 0 2 4 4 3 2 0 2 3 2 2 3 2 2 1 2 4 7 4 1 5 6 5 6 7 4 4 3 5 4 5 5 4 3 4 4 2 1 1 2 2 3 2 4 4 3 1 3 7 8 9 10 9 8 6 6 5
4 5 6 7 9 9 9 6 2 3 4 5 7 5 2 1 2 2 2 2 1 1 3 5 5 5 4 4 4 5 2 2 3 4 3 2 1 1 1 3 2 3 4 3 2 1 1 4 6 4 2 4 6 5 5 5 4 2 3 4 4 4 7 5 2 1 3 3 2 1 1 3 2 1 3 3 4 5 3 6 8 9 10 11 10 8 7 7
5 5 4 6 10 9 7 4 1 3 4 6 6 3 2 2 2 3 2 2 1 1 4 4 3 2 2 2 3 5 4 3 3 3 2 1 1 3 3 4 3 2 4 3 2 2 2 3 6 2 2 5 4 5 3 2 5 5 4 6 3 2 4 4 3 2 3 2 2 0 2 2 1 1 3 3 4 4 4 4 6 6 8 8 7 7 6 7
7 6 3 6 10 6 2 1 1 3 5 6 4 1 1 1 1 3 2 2 0 3 6 3 0 1 1 1 2 5 3 2 2 2 2 1 1 1 2 3 3 2 3 4 1 1 2 2 7 2 1 6 3 5 2 2 2 4 5 5 4 3 2 2 3 3 2 2 2 1 1 2 3 3 2 2 3 4 4 4 6 7 6 6 5 5 5 6
6 3 2 8 9 1 3 2 2 4 6 5 3 0 1 2 3 3 2 1 2 4 4 1 1 2 2 2 0 3 3 2 1 2 2 1 1 0 1 1 3 4 2 4 3 1 1 1 5 4 2 3 5 3 2 2 2 2 3 2 1 3 4 3 2 3 4 3 1 0 1 3 4 3 3 5 5 6 6 6 7 8 7 7 7 7 6 5
4 2 1 8 7 5 5 1 4 6 4 3 1 1 1 2 4 5 4 3 2 2 2 1 1 3 1 1 1 1 3 3 2 2 1 1 1 2 2 1 2 5 4 4 3 0 2 2 3 6 3 1 1 1 4 4 2 2 3 2 1 2 3 3 2 1 4 4 3 2 1 4 3 2 3 5 6 7 8 7 8 8 8 8 8 8 7 5
3 3 2 6 5 7 3 3 4 3 2 2 0 2 2 1 2 6 7 5 3 1 2 3 2 3 1 2 2 1 2 3 2 2 2 1 2 0 2 0 1 3 3 5 4 1 1 1 1 4 4 1 4 4 4 6 5 4 4 4 4 3 4 4 1 1 2 4 4 4 3 4 3 1 2 5 7 8 9 9 9 9 9 9 9 9 9 7
4 2 2 4 2 6 4 4 1 1 2 1 1 1 2 2 3 5 6 5 4 2 3 3 2 2 2 1 1 2 3 3 3 2 2 1 2 2 3 4 2 1 3 2 2 2 2 3 1 3 2 3 7 6 2 4 4 4 3 3 4 4 5 5 4 3 2 3 1 3 1 4 3 1 3 6 7 9 9 9 9 9 9 9 10 10 10 9
3 1 2 5 3 7 5 4 3 3 1 3 0 1 2 2 2 4 5 6 4 3 3 3 1 2 3 1 1 3 3 3 2 2 1 0 1 1 6 7 2 2 4 2 2 1 1 3 3 3 4 4 6 5 4 1 3 4 2 2 2 1 3 5 5 4 4 3 1 3 0 3 2 2 4 7 8 8 8 8 9 9 8 9 10 10 10 9
1 3 3 6 2 4 3 2 2 3 3 3 3 3 3 2 3 4 4 5 4 2 3 2 2 2 2 2 3 3 2 2 3 2 1 1 1 3 5 7 5 3 2 0 1 1 1 2 2 2 3 4 5 6 6 5 4 2 3 3 1 3 6 5 3 3 3 3 4 5 3 3 2 4 4 7 9 9 8 7 8 9 9 9 9 9 9 7
1 1 3 7 7 4 3 2 3 1 2 3 4 4 4 3 2 2 2 3 3 3 2 1 2 2 2 3 4 4 4 3 3 2 2 2 3 4 5 8 6 4 2 1 1 1 2 2 2 4 3 2 1 2 3 4 4 3 3 4 2 4 6 5 3 4 2 3 4 4 3 2 5 8 7 8 10 10 9 7 6 7 9 9 8 8 8 6
2 1 2 6 6 5 2 1 3 3 2 2 3 3 4 2 2 2 3 4 4 4 4 2 3 3 4 5 5 5 7 4 2 3 3 4 4 3 5 6 6 7 6 4 4 3 4 2 2 4 4 4 5 5 5 2 2 3 4 6 4 1 3 5 5 2 3 4 2 3 5 8 10 11 10 10 11 10 9 8 7 6 7 7 7 7 7 7
2 1 1 2 3 4 3 3 5 2 2 3 2 2 3 3 2 4 4 3 3 3 4 4 6 5 3 3 4 4 6 5 4 4 3 4 3 4 6 4 6 10 9 5 5 4 5 3 4 3 2 3 5 6 5 1 2 2 4 7 6 2 3 6 4 4 6 7 3 5 7 12 13 13 12 11 11 10 9 8 7 7 7 7 7 8 9 8
2 1 1 1 0 1 1 3 4 3 3 4 3 1 3 4 3 3 3 2 3 4 3 4 7 6 3 1 4 2 5 5 5 4 3 3 3 4 7 5 5 9 7 5 5 4 6 2 2 1 1 1 2 2 4 4 1 1 5 5 7 5 2 4 4 5 8 7 4 7 11 11 12 14 14 11 11 10 10 9 8 8 8 8 9 11 11 9
2 1 1 1 2 3 2 2 4 3 5 4 3 3 3 3 4 2 2 3 4 4 4 3 5 7 6 4 5 3 2 2 3 3 2 3 3 3 4 4 5 7 7 5 4 3 5 1 3 1 2 3 4 5 6 8 4 3 6 6 7 6 2 2 3 4 6 3 4 9 10 4 5 12 12 10 9 9 9 9 9 10 10 9 11 12 12 9
2 1 2 2 3 0 1 3 3 3 4 4 3 2 2 3 4 2 2 3 2 4 4 4 0 3 5 6 6 4 2 5 3 2 1 1 3 2 2 2 3 6 7 4 4 3 4 2 3 3 1 4 7 8 8 8 4 2 6 9 9 8 6 3 2 3 5 4 3 10 9 3 3 9 11 9 9 9 10 10 9 10 10 10 11 11 10 8
2 1 1 3 2 3 2 3 3 4 3 3 2 2 1 1 1 2 3 2 2 1 1 4 3 1 4 7 7 2 3 6 6 5 4 2 0 1 1 2 2 3 6 3 3 4 4 2 3 5 3 3 6 9 10 9 5 4 8 12 11 7 4 2 2 1 3 6 9 10 6 5 7 10 12 11 11 11 12 11 10 8 9 11 11 10 9 7
4 1 2 4 2 3 2 2 3 3 1 1 2 2 1 2 2 3 4 3 3 2 3 6 5 3 4 7 5 4 6 7 7 7 6 4 2 3 3 1 2 1 1 2 2 3 3 3 2 4 2 3 7 7 6 7 7 4 5 7 6 4 2 2 3 2 2 7 9 4 3 7 12 14 15 14 13 13 12 10 9 9 9 10 10 10 9 7
Wind_Direction
349 347 343 340 339 336 334 334 330 327 325 321 318 315 312 309 307 307 308 310 309 310 314 316 316 317 314 315 316 316 319 317 313 297 243 252 249 222 212 191 181 169 163 163 160 149 136 151 155 144 142 147 175 137 177 202 143 121 103 84 32 203 213 201 172 164 140 135 141 155 171 133 134 142 123 99 91 103 91 75 78 75 88 104 118 132 136 138
347 345 342 339 336 333 332 330 328 326 323 320 318 314 311 307 305 304 304 306 306 308 315 315 316 313 311 315 316 319 327 320 312 283 252 252 246 202 200 182 178 178 169 162 159 149 139 161 162 146 131 131 179 154 167 199 145 204 5 79 250 214 241 223 156 159 145 140 140 147 160 138 140 142 140 126 118 110 93 92 96 93 101 112 124 134 136 139
346 343 341 338 334 333 331 329 328 327 324 321 317 315 312 306 304 301 300 301 303 310 315 315 315 310 313 317 318 324 327 327 312 273 265 255 229 203 185 173 181 181 173 168 165 159 157 161 155 144 122 121 167 159 175 202 172 212 6 2 257 213 64 69 151 161 133 135 137 144 146 123 133 119 122 136 125 115 118 129 121 119 128 128 133 139 140 141
344 341 340 338 335 333 332 330 328 327 325 322 319 318 313 309 305 299 296 297 302 312 315 313 312 313 319 317 320 331 330 333 292 256 323 264 207 196 178 170 176 175 172 171 165 162 157 147 147 146 112 104 164 155 181 192 184 179 179 241 241 217 81 108 147 131 112 127 133 137 131 126 136 52 111 139 129 129 155 159 144 140 143 139 142 144 144 144
343 340 339 338 337 335 334 333 332 330 326 325 323 319 314 310 305 298 296 297 304 312 312 309 314 323 321 317 327 336 344 46 300 287 40 5 181 180 176 168 171 169 165 165 155 145 146 141 144 140 107 119 155 163 200 191 184 186 219 251 213 200 161 106 118 116 114 118 120 130 133 133 128 72 130 147 144 161 165 161 147 144 146 144 145 146 146 145
342 341 340 338 337 335 335 335 335 333 329 328 325 322 317 311 305 301 298 300 307 306 307 309 319 329 321 328 340 350 28 186 304 327 20 8 167 171 168 164 167 160 151 157 152 138 139 141 149 139 119 143 187 201 202 179 185 204 254 255 201 172 149 112 101 115 125 124 121 133 124 105 104 86 99 130 139 143 135 142 142 141 143 142 143 146 148 149
343 342 340 338 337 336 336 336 335 334 333 332 329 326 322 316 311 306 303 300 304 301 305 312 318 323 352 14 349 36 80 252 297 313 353 71 163 165 158 161 168 161 148 150 152 145 140 144 158 141 122 161 211 221 209 162 185 214 288 216 162 121 122 110 108 121 123 117 109 116 107 81 105 112 73 62 92 121 123 131 136 136 139 141 145 150 152 154
345 343 340 339 338 337 339 336 335 335 335 335 332 329 326 322 313 306 303 295 298 302 305 310 317 322 62 69 48 17 330 258 305 261 285 147 160 162 159 161 172 173 162 155 157 154 139 143 160 139 140 219 205 215 196 143 176 211 233 173 128 98 105 99 107 113 96 98 106 104 95 69 79 127 104 52 97 120 123 130 134 136 139 145 152 154 154 156
347 344 341 340 338 338 339 336 337 335 335 337 335 334 330 325 315 309 301 294 297 298 303 307 317 12 116 85 92 1 274 280 329 286 218 157 163 167 168 164 173 178 169 164 164 160 158 156 170 153 163 219 190 231 195 148 200 198 135 99 121 92 90 80 84 102 90 97 119 104 88 72 36 42 98 50 112 126 126 133 138 141 144 150 157 157 156 157
348 345 342 340 339 338 338 338 339 335 335 337 337 335 332 326 317 310 299 297 296 291 301 296 297 96 184 256 105 196 279 351 351 329 146 162 168 169 174 170 171 174 168 169 171 170 170 166 169 134 109 207 205 253 199 175 206 144 104 87 102 86 85 88 78 94 95 93 127 114 102 82 22 39 113 70 125 130 128 136 143 146 147 154 157 159 161 163
349 347 343 341 340 339 339 339 337 335 334 335 335 332 330 326 313 304 293 290 289 287 291 279 210 147 204 158 126 212 279 10 5 19 137 170 172 174 181 180 176 173 166 165 184 185 164 150 155 99 79 261 289 290 220 201 134 121 110 88 83 83 87 103 114 118 93 72 113 108 96 71 18 52 135 114 135 136 133 140 147 149 150 154 155 158 164 167
350 347 345 343 341 341 341 338 335 335 334 334 332 329 328 323 307 299 291 284 285 282 272 203 138 151 181 6 207 231 279 340 344 2 134 171 177 179 184 185 182 180 172 164 190 195 178 143 147 132 178 292 318 309 263 245 123 121 115 102 95 87 73 45 95 136 67 105 156 115 88 52 358 22 145 122 140 139 135 143 150 152 152 153 156 159 165 169
352 349 346 345 344 344 341 337 335 334 335 336 331 327 324 314 307 302 289 282 265 209 125 129 143 143 98 274 241 258 293 310 315 330 148 170 180 182 186 186 184 186 181 170 186 197 198 172 88 134 215 7 299 273 309 318 123 118 105 113 122 94 75 354 349 40 81 137 173 132 109 212 179 174 173 122 143 142 137 149 152 155 157 155 158 159 166 172
354 351 348 346 345 344 340 339 335 332 336 337 330 325 320 306 300 298 275 218 157 145 133 139 147 123 90 259 268 305 310 287 275 254 177 171 169 169 184 185 183 187 185 168 161 194 204 219 18 26 252 220 244 297 341 22 112 119 104 102 112 111 134 160 179 135 125 175 235 343 217 203 160 168 190 121 146 149 146 155 156 159 161 157 162 162 170 178
355 352 350 347 346 344 342 339 333 334 338 336 329 322 316 298 195 72 105 135 128 129 132 136 149 121 13 280 277 302 302 282 258 237 205 185 157 148 177 180 183 189 191 187 140 165 190 197 353 309 270 241 170 335 348 33 78 123 118 105 351 150 165 165 184 177 162 181 231 301 213 175 141 172 178 119 151 156 152 159 159 163 165 161 165 166 173 182
354 353 351 348 346 344 342 339 336 340 344 338 326 311 311 127 123 92 103 117 113 126 130 131 157 131 37 285 292 309 282 276 276 262 216 197 171 154 163 163 173 184 192 200 207 239 164 162 162 196 270 313 123 98 58 41 29 145 110 143 189 182 180 157 179 211 179 148 189 265 185 105 132 174 158 108 154 161 155 162 165 165 168 166 167 170 176 182
355 353 352 348 346 345 341 340 342 348 353 351 325 238 141 125 126 105 103 108 113 126 126 112 119 104 264 282 310 321 294 289 299 276 203 196 184 151 148 143 147 157 162 177 200 275 127 153 215 211 357 41 131 99 85 74 211 207 87 121 184 183 172 138 155 211 180 154 180 227 213 75 129 160 143 92 141 162 163 167 170 170 171 170 170 175 180 182
354 353 351 347 346 343 341 343 347 355 3 9 46 147 131 117 113 106 106 109 112 118 112 38 40 74 270 292 307 293 303 309 313 294 186 185 174 154 146 137 132 133 126 123 161 141 108 247 57 157 336 63 119 109 130 209 195 172 140 118 132 184 192 175 170 179 173 178 161 144 182 67 121 147 140 110 112 160 173 171 171 174 172 173 174 179 184 185
353 352 349 346 346 343 341 347 351 1 17 31 101 123 121 111 100 100 102 106 117 120 302 240 166 90 261 269 288 300 305 300 295 243 172 169 170 171 147 124 130 119 109 100 128 168 152 67 75 151 227 164 162 156 160 196 175 164 157 136 153 178 213 186 148 152 160 157 90 101 130 112 146 157 152 147 83 126 176 172 171 174 174 177 180 185 186 188
352 351 348 344 346 343 342 348 351 5 29 53 130 125 111 94 57 20 61 144 203 237 271 210 183 251 294 262 297 319 312 301 284 184 171 168 158 161 175 93 88 67 100 134 181 197 139 145 193 201 202 184 185 188 165 133 116 130 125 147 170 161 99 97 101 142 153 139 115 137 127 141 162 159 144 126 50 327 184 176 175 172 176 181 184 188 187 193
351 350 346 344 346 345 342 347 351 3 27 60 151 139 105 134 22 318 286 260 238 233 246 232 189 244 271 264 294 333 346 342 327 39 165 169 144 134 252 15 77 63 116 148 158 36 114 165 218 220 200 173 175 203 178 105 82 92 117 144 146 109 85 85 120 151 158 138 138 140 131 161 164 149 148 146 170 239 187 181 183 176 178 183 186 188 187 195
350 348 344 344 346 345 339 344 351 359 15 34 146 156 182 234 295 265 279 309 275 238 229 250 256 261 264 264 263 255 49 14 298 327 145 154 135 138 237 52 102 147 90 114 101 20 38 213 232 217 175 119 119 176 146 106 102 94 109 117 112 115 92 80 120 145 145 109 139 133 129 161 154 135 156 178 189 285 81 189 194 183 181 183 187 186 186 189
349 346 344 343 346 345 338 340 348 356 358 2 129 146 336 338 313 239 182 334 288 285 202 213 231 245 270 274 232 174 105 169 229 301 167 146 129 162 127 81 118 140 80 111 135 130 197 237 224 184 142 111 91 124 127 104 94 110 121 114 146 173 125 98 153 141 46 59 135 138 115 128 140 119 150 195 198 260 255 235 243 202 191 190 189 186 187 187
347 345 343 342 347 346 337 338 351 356 349 343 341 357 351 353 350 193 174 37 296 300 218 197 199 202 253 275 169 149 135 179 182 276 178 142 111 142 135 124 121 127 190 144 140 169 225 225 156 120 121 127 127 136 135 132 240 257 163 149 163 178 136 125 159 141 53 41 102 129 99 358 180 161 183 200 201 247 243 232 253 244 208 194 188 190 192 187
346 345 342 341 348 348 340 342 25 351 345 346 342 350 354 353 2 131 109 44 338 302 259 207 218 215 244 160 161 171 131 161 206 223 177 145 133 130 138 142 117 171 213 139 133 200 255 236 157 115 105 124 142 173 183 165 186 292 214 182 160 143 123 126 142 132 78 27 229 157 126 240 218 189 196 191 200 227 233 225 236 239 210 191 187 197 197 188
345 344 341 340 344 352 350 6 5 345 342 349 337 345 352 347 5 107 77 44 24 314 321 291 193 276 293 125 165 165 79 275 243 200 159 156 149 117 108 174 59 185 188 142 156 222 267 248 140 139 140 131 146 200 229 170 137 281 225 171 149 136 132 141 149 145 126 164 206 199 162 168 233 228 208 190 200 218 221 221 232 230 209 193 192 199 193 188
344 344 342 337 341 353 356 316 332 338 335 306 331 341 344 342 63 114 56 44 15 307 310 289 25 40 332 349 120 108 111 272 263 105 151 166 158 70 113 187 83 175 176 120 178 244 209 147 91 128 133 135 159 217 230 161 133 244 199 139 148 147 146 159 161 157 150 106 136 196 174 117 219 228 201 187 200 217 221 222 226 226 217 201 194 198 189 186
345 344 340 336 339 342 334 313 320 317 249 299 321 336 341 348 134 111 72 71 303 290 245 281 310 325 315 348 61 101 189 252 127 287 314 134 141 52 99 200 177 181 179 127 194 262 205 179 187 168 147 167 197 210 197 162 162 234 161 135 159 161 157 165 159 140 131 101 131 215 195 113 263 237 172 177 202 218 221 219 218 217 215 203 190 194 191 186
345 342 337 334 332 330 322 307 304 289 287 306 322 333 339 70 112 62 72 91 296 289 238 326 324 306 333 13 23 34 349 358 115 263 346 97 119 65 128 202 160 164 212 132 193 255 244 207 191 162 157 199 215 209 179 166 199 225 128 104 116 131 128 134 130 110 112 112 188 207 190 143 277 237 162 174 207 219 217 214 212 212 211 202 189 182 183 184
345 337 330 329 321 318 313 302 294 280 304 314 320 327 342 96 79 52 52 60 356 277 267 357 313 305 51 71 342 351 21 314 358 6 28 86 19 36 127 181 110 125 308 32 219 247 272 246 170 149 177 198 206 202 179 177 189 151 95 82 75 77 68 67 64 87 116 211 229 198 184 144 289 229 181 184 210 213 210 208 203 203 204 200 190 176 176 180
342 331 323 319 310 299 298 305 304 299 310 318 321 335 22 59 62 80 69 6 67 302 313 282 275 51 104 132 207 324 65 305 352 67 72 90 54 31 37 110 64 66 12 355 296 291 324 327 186 212 204 178 164 190 199 193 184 126 97 108 91 60 37 43 3 35 141 237 259 188 170 142 252 238 205 212 234 189 198 203 197 195 200 198 188 175 173 173
338 325 313 306 297 277 270 292 303 306 314 324 343 26 80 46 28 79 278 331 347 284 276 248 259 118 119 119 165 223 151 294 332 110 129 124 129 179 191 175 181 35 342 286 288 332 321 239 223 260 224 161 137 174 316 36 149 138 132 121 106 108 86 74 319 309 188 243 269 154 143 164 249 243 226 237 251 212 195 198 193 191 195 195 186 174 166 162
333 318 308 303 295 286 290 301 303 306 317 334 40 56 80 75 33 331 280 323 280 256 238 265 300 115 115 86 320 256 153 202 273 85 99 91 104 224 296 207 164 139 230 217 270 350 325 291 281 247 259 179 144 157 190 127 157 161 161 139 124 143 150 158 215 324 246 258 338 91 101 301 271 273 295 266 263 259 220 192 186 186 189 189 177 156 147 150
332 316 310 305 301 302 309 315 307 303 320 14 77 60 63 71 333 304 303 263 250 308 6 11 19 47 62 106 249 244 123 230 35 79 47 44 54 352 327 319 173 138 136 166 212 145 109 299 251 182 233 183 164 179 171 150 160 177 175 145 142 156 155 165 179 174 213 237 55 81 110 209 238 257 275 269 272 262 220 180 163 168 169 161 146 127 127 141
335 322 317 309 307 311 318 322 315 315 335 47 70 62 66 64 266 281 289 264 276 341 348 11 69 52 10 319 315 344 144 11 41 64 44 60 90 311 293 293 277 125 121 151 240 179 132 254 252 250 222 160 177 202 147 122 145 197 156 121 155 184 155 134 163 172 160 124 116 176 196 217 208 258 296 288 312 328 166 148 141 150 150 146 154 147 131 131
351 343 325 305 308 315 326 332 326 348 11 67 66 60 97 224 247 203 238 273 314 329 343 13 54 59 349 318 339 349 12 51 56 57 31 59 116 320 258 257 261 136 140 165 221 189 69 273 275 317 323 192 189 189 159 155 175 157 133 165 204 179 132 117 123 80 91 126 209 208 257 311 301 313 335 0 30 30 74 131 138 149 153 157 171 167 143 131
14 359 328 312 323 323 331 348 355 7 35 78 78 83 206 237 198 194 270 305 310 69 78 52 37 55 348 335 333 331 350 31 46 62 47 28 345 319 304 276 259 187 185 190 222 189 133 279 288 343 324 271 219 150 136 165 153 133 162 189 184 91 94 104 120 55 64 164 259 270 198 288 330 221 322 18 63 48 47 102 120 132 150 158 165 161 145 132
4 357 347 341 340 330 332 33 36 37 59 70 61 83 197 329 206 210 288 319 333 56 73 91 99 132 132 77 334 318 352 43 12 53 101 64 353 287 315 292 273 270 215 173 126 42 116 287 293 287 211 295 337 103 95 359 112 148 165 154 121 121 137 106 135 149 138 172 285 319 215 225 195 211 237 147 139 116 97 110 118 120 132 139 133 127 123 122
6 15 12 347 346 16 134 129 60 52 65 64 47 126 216 290 281 270 295 332 99 69 64 99 98 80 99 104 132 313 13 90 77 68 111 93 49 189 23 292 289 324 354 128 125 305 82 86 286 282 245 305 5 78 172 284 10 55 94 100 75 130 155 156 146 155 149 159 218 255 251 242 223 217 182 159 161 148 135 128 125 123 121 122 123 118 113 113
29 58 349 349 13 123 151 121 44 48 65 83 166 232 298 270 284 319 340 23 66 70 63 84 65 65 44 29 62 318 31 75 104 84 90 96 79 296 298 295 297 320 359 63 85 321 37 71 263 291 329 56 64 138 183 180 149 72 79 117 95 69 127 141 81 82 132 144 166 156 213 257 247 234 185 149 152 161 147 128 121 121 117 114 118 117 110 98
62 54 299 351 58 138 135 36 35 51 85 70 208 250 304 302 329 341 346 22 51 50 99 111 96 85 93 19 9 336 47 56 55 76 71 65 101 250 306 34 250 296 10 37 37 41 53 76 252 303 355 40 238 245 198 180 176 158 150 166 164 129 125 125 104 301 103 124 162 159 191 258 277 248 177 129 140 152 137 124 122 118 114 111 109 109 108 102
72 66 289 347 150 168 78 42 310 66 99 86 31 267 309 13 25 348 343 14 44 44 54 74 83 73 93 105 8 11 71 58 17 53 94 90 136 161 323 326 265 194 86 52 301 258 157 101 46 286 279 252 260 271 248 200 181 141 134 149 146 133 125 132 177 214 100 90 122 107 140 270 290 165 139 117 124 129 123 122 122 115 112 111 108 109 110 110
81 202 290 5 205 188 74 36 302 9 15 245 270 345 326 33 26 349 2 20 30 38 37 29 21 50 53 82 86 42 59 71 31 34 148 287 148 243 311 322 313 94 75 48 301 290 117 74 33 306 297 306 303 319 343 4 85 73 26 44 96 117 128 141 166 162 133 147 129 82 90 266 257 157 137 123 122 122 123 129 127 122 118 115 115 117 118 118
116 227 275 4 15 176 94 46 284 341 318 301 34 8 337 47 50 19 23 13 358 29 56 19 1 34 27 41 83 57 34 93 69 20 51 82 325 290 327 353 26 58 48 16 258 322 26 48 48 29 356 344 343 353 353 351 26 46 314 321 68 104 102 111 102 75 115 184 148 132 211 253 160 146 139 128 125 121 125 131 128 127 126 123 120 118 119 119
40 197 269 346 21 70 105 163 166 125 332 2 37 8 356 35 51 49 68 35 7 39 72 353 343 23 21 33 58 35 24 78 87 13 29 22 305 304 345 4 36 52 354 253 188 71 76 61 78 105 120 181 209 348 328 319 335 321 297 329 27 111 116 122 110 81 129 187 143 146 196 198 148 151 149 140 130 122 123 121 113 119 122 121 118 115 118 115
46 100 306 332 9 46 57 160 108 111 146 94 51 18 31 40 321 330 82 73 31 39 59 7 352 28 30 36 50 24 9 26 63 55 34 344 302 292 327 349 31 26 356 12 42 70 99 56 50 115 134 168 185 224 252 257 302 302 317 342 356 90 109 99 109 140 164 154 178 221 174 151 160 164 158 152 141 131 130 126 115 114 112 111 112 113 113 111
63 114 36 336 345 18 16 13 34 56 158 120 96 3 13 25 343 345 28 61 33 43 62 23 19 39 16 24 68 37 355 360 25 41 15 323 288 284 308 334 27 9 353 9 26 61 97 36 8 80 115 162 184 235 272 251 207 286 345 339 328 325 111 106 131 185 152 133 221 244 168 157 170 172 164 159 149 138 137 133 124 120 114 111 113 115 116 116
60 151 149 131 161 20 26 359 360 12 53 80 96 50 15 33 50 15 348 13 22 40 73 27 14 20 352 17 104 62 349 3 14 359 339 337 329 329 336 344 9 7 7 14 9 73 107 49 334 50 280 232 177 287 2 38 316 354 44 8 339 329 217 160 166 180 150 144 216 202 170 169 174 168 163 157 148 141 136 133 127 120 114 113 117 122 123 123
48 87 297 43 117 184 214 307 327 15 44 54 62 52 42 46 50 8 317 21 15 8 68 71 358 356 5 32 101 91 18 57 32 338 323 351 341 357 7 345 336 360 24 27 4 80 108 1 318 2 289 323 12 4 27 38 16 16 44 34 14 354 297 163 144 155 131 126 201 164 151 152 154 157 156 147 141 136 130 129 128 123 121 119 120 124 127 128
50 79 305 19 46 250 267 351 28 64 38 32 55 49 51 62 52 10 359 62 53 345 36 97 119 353 26 41 75 93 161 164 144 316 270 44 356 6 26 289 290 342 8 26 356 30 85 6 328 33 6 334 360 4 13 28 38 46 22 17 21 11 354 22 76 130 101 73 119 130 124 86 116 142 140 136 139 136 133 136 133 130 130 125 121 124 125 125
1 214 133 87 39 347 348 6 59 91 37 12 114 134 59 72 100 83 39 45 106 64 85 149 153 66 35 42 53 43 242 192 187 240 227 178 270 275 270 220 198 342 354 16 357 4 59 39 352 44 62 304 341 357 356 5 34 52 16 4 2 358 343 326 299 219 135 126 121 120 136 166 154 142 138 143 147 142 140 141 135 134 133 127 126 125 122 119
1 316 55 99 81 356 13 8 30 85 75 303 183 146 121 207 197 106 80 6 17 72 170 166 139 91 42 33 21 303 261 215 210 236 223 199 251 259 260 262 160 137 344 63 38 12 73 78 25 52 80 290 317 336 348 13 30 18 350 343 325 301 260 263 302 347 91 133 138 147 191 163 150 148 148 151 151 146 147 147 141 140 134 126 125 122 118 116